Photometre #349[Standard_N] Amsterdam_Island AOT

File : 20190928_349.hum

28/09/2019,01:17:23,TEMP=10.3,BA=5.72,STAT.A=Abs.,ExtBa=13.78
28/09/2019,01:18:45,TEMP=10.5,BA=5.72,STAT.b=Abs.
28/09/2019,01:20:37,TEMP=10.5,BA=5.72,STAT.b=Abs.
28/09/2019,01:24:23,TEMP=10.4,BA=5.72,STAT.A=Abs.,ExtBa=13.76
28/09/2019,01:25:45,TEMP=10.5,BA=5.72,STAT.b=Abs.
28/09/2019,01:28:57,TEMP=10.5,BA=5.72,STAT.A=Abs.,ExtBa=13.71
28/09/2019,01:30:20,TEMP=10.5,BA=5.72,STAT.b=Abs.
28/09/2019,01:34:19,TEMP=10.3,BA=5.72,STAT.A=Abs.,ExtBa=13.69
28/09/2019,01:40:59,TEMP=10.3,BA=5.72,STAT.A=Abs.,ExtBa=13.71
28/09/2019,01:49:22,TEMP=10.3,BA=5.72,STAT.B=Abs.,ExtBa=13.72
28/09/2019,01:53:22,TEMP=10.4,BA=5.72,STAT.A=Abs.,ExtBa=13.68
28/09/2019,01:57:51,TEMP=10.4,BA=5.72,STAT.A=Abs.,ExtBa=13.66
28/09/2019,02:02:58,TEMP=10.6,BA=5.72,STAT.A=Abs.,ExtBa=13.63
28/09/2019,02:08:36,TEMP=10.1,BA=5.72,STAT.A=Abs.,ExtBa=13.62
28/09/2019,02:15:09,TEMP=10.0,BA=5.72,STAT.C=Abs.,ExtBa=13.65
28/09/2019,02:22:45,TEMP=10.3,BA=5.72,STAT.A=Abs.,ExtBa=13.67
28/09/2019,02:31:40,TEMP=9.8,BA=5.72,STAT.A=Abs.,ExtBa=13.63
28/09/2019,02:42:18,TEMP=9.1,BA=5.72,STAT.A=Abs.,ExtBa=13.68
28/09/2019,02:55:15,TEMP=10.4,BA=5.72,STAT.A=Abs.,ExtBa=13.71
28/09/2019,03:11:30,TEMP=12.3,BA=5.72,STAT.B=Abs.,ExtBa=13.75
28/09/2019,03:25:59,TEMP=13.3,BA=5.72,STAT.D=Abs.,ExtBa=13.23
28/09/2019,03:41:01,TEMP=13.9,BA=5.72,STAT.F,ExtBa=13.48
28/09/2019,03:55:59,TEMP=13.5,BA=5.72,STAT.D=Abs.,ExtBa=13.14
28/09/2019,04:11:00,TEMP=13.7,BA=5.72,STAT.D=Abs.,ExtBa=13.39
28/09/2019,04:26:00,TEMP=13.2,BA=5.72,STAT.D=Abs.,ExtBa=13.52
28/09/2019,04:41:00,TEMP=14.0,BA=5.72,STAT.F,ExtBa=13.58
28/09/2019,04:55:59,TEMP=14.4,BA=5.68,STAT.D=Abs.,ExtBa=13.05
28/09/2019,05:10:56,TEMP=14.5,BA=5.72,STAT.b=Abs.
28/09/2019,05:26:00,TEMP=14.9,BA=5.72,STAT.D=Abs.,ExtBa=13.55
28/09/2019,05:41:02,TEMP=15.1,BA=5.72,STAT.F,ExtBa=13.60
28/09/2019,05:55:54,TEMP=15.4,BA=5.68,STAT.b=Abs.
28/09/2019,06:11:01,TEMP=15.3,BA=5.72,STAT.D=Abs.,ExtBa=13.39
28/09/2019,06:12:35,TEMP=15.1,BA=5.72,STAT.b=Abs.
28/09/2019,06:26:06,TEMP=12.2,BA=5.72,STAT.D=Abs.,ExtBa=13.44
28/09/2019,06:41:02,TEMP=14.0,BA=5.72,STAT.F,ExtBa=13.55
28/09/2019,06:42:34,TEMP=14.1,BA=5.72,STAT.b=Abs.
28/09/2019,06:56:02,TEMP=14.8,BA=5.72,STAT.D=Abs.,ExtBa=13.55
28/09/2019,07:11:01,TEMP=15.0,BA=5.72,STAT.D=Abs.,ExtBa=13.61
28/09/2019,07:26:01,TEMP=15.3,BA=5.72,STAT.D=Abs.,ExtBa=13.62
28/09/2019,07:41:02,TEMP=15.0,BA=5.72,STAT.F,ExtBa=13.65
28/09/2019,07:48:34,TEMP=15.4,BA=5.72,STAT.b=Abs.
28/09/2019,07:56:02,TEMP=15.3,BA=5.72,STAT.D=Abs.,ExtBa=13.28
28/09/2019,08:11:00,TEMP=15.1,BA=5.72,STAT.D=Abs.,ExtBa=13.51
28/09/2019,08:26:00,TEMP=15.3,BA=5.72,STAT.D=Abs.,ExtBa=13.59
28/09/2019,08:41:01,TEMP=15.0,BA=5.72,STAT.F,ExtBa=13.63
28/09/2019,08:48:39,TEMP=14.8,BA=5.72,STAT.b=Abs.
28/09/2019,08:56:00,TEMP=13.7,BA=5.72,STAT.D=Abs.,ExtBa=13.23
28/09/2019,09:10:59,TEMP=13.1,BA=5.72,STAT.D=Abs.,ExtBa=13.47
28/09/2019,09:25:59,TEMP=12.2,BA=5.72,STAT.D=Abs.,ExtBa=13.57
28/09/2019,09:41:01,TEMP=12.3,BA=5.72,STAT.F,ExtBa=13.59
28/09/2019,09:50:27,TEMP=12.8,BA=5.68,STAT.b=Abs.
28/09/2019,09:55:59,TEMP=13.1,BA=5.68,STAT.D=Abs.,ExtBa=13.10
28/09/2019,10:10:32,TEMP=12.1,BA=5.72,STAT.B=Abs.,ExtBa=13.31
28/09/2019,10:26:45,TEMP=10.3,BA=5.72,STAT.A=Abs.,ExtBa=13.45
28/09/2019,10:39:42,TEMP=9.8,BA=5.72,STAT.A=Abs.,ExtBa=13.50
28/09/2019,10:50:20,TEMP=10.3,BA=5.72,STAT.A=Abs.,ExtBa=13.54
28/09/2019,10:59:15,TEMP=10.5,BA=5.72,STAT.A=Abs.,ExtBa=13.55
28/09/2019,11:06:51,TEMP=11.0,BA=5.72,STAT.C=Abs.,ExtBa=13.54
28/09/2019,11:14:52,TEMP=11.6,BA=5.68,STAT.A=Abs.,ExtBa=12.94
28/09/2019,11:19:07,TEMP=11.5,BA=5.68,STAT.A=Abs.,ExtBa=13.06
28/09/2019,11:24:09,TEMP=11.6,BA=5.68,STAT.A=Abs.,ExtBa=13.13
28/09/2019,11:28:38,TEMP=11.6,BA=5.68,STAT.A=Abs.,ExtBa=13.16
28/09/2019,11:32:38,TEMP=11.4,BA=5.68,STAT.B=Abs.,ExtBa=13.17
28/09/2019,11:41:02,TEMP=11.4,BA=5.72,STAT.A=Abs.,ExtBa=12.89
28/09/2019,11:47:41,TEMP=11.1,BA=5.72,STAT.A=Abs.,ExtBa=13.05
28/09/2019,11:53:05,TEMP=11.1,BA=5.72,STAT.A=Abs.,ExtBa=13.09
28/09/2019,11:57:34,TEMP=11.0,BA=5.72,STAT.A=Abs.,ExtBa=13.09
28/09/2019,12:01:21,TEMP=10.9,BA=5.72,STAT.A=Abs.,ExtBa=13.13
28/09/2019,12:04:35,TEMP=10.8,BA=5.72,STAT.A=Abs.,ExtBa=13.13